This is the latest recevied weather packets stored in our database for station/object K7DC. If no packets are shown the sender has not sent any weather packets the latest 10 day(s).
| Time | Temp. | Humidity | Pressure | Rain* | Wind** | Luminosity | Snow |
|---|---|---|---|---|---|---|---|
| 1777024641 | 12.78° C | 41% | 1012.6 hPa | 0 mm | - | 0 W/m² | - |
| 1777024338 | 12.78° C | 40% | 1012.7 hPa | 0 mm | - | 0 W/m² | - |
| 1777024034 | 12.78° C | 41% | 1012.7 hPa | 0 mm | - | 0 W/m² | - |
| 1777023730 | 12.78° C | 42% | 1012.6 hPa | 0 mm | - | 0 W/m² | - |
| 1777023428 | 12.78° C | 40% | 1012.7 hPa | 0 mm | - | 0 W/m² | - |
| 1777023124 | 12.78° C | 41% | 1012.6 hPa | 0 mm | - | 0 W/m² | - |
| 1777022820 | 13.33° C | 41% | 1012.6 hPa | 0 mm | - | 0 W/m² | - |
| 1777022515 | 13.33° C | 41% | 1012.8 hPa | 0 mm | - | 0 W/m² | - |
| 1777022211 | 13.33° C | 42% | 1012.6 hPa | 0 mm | - | 0 W/m² | - |
| 1777021907 | 13.89° C | 41% | 1012.8 hPa | 0 mm | - | 0 W/m² | - |
| 1777021604 | 13.89° C | 42% | 1012.7 hPa | 0 mm | - | 0 W/m² | - |
| 1777021300 | 13.89° C | 42% | 1012.8 hPa | 0 mm | - | 0 W/m² | - |
| 1777020997 | 14.44° C | 40% | 1012.8 hPa | 0 mm | - | 0 W/m² | - |
| 1777020692 | 15° C | 39% | 1012.8 hPa | 0 mm | - | 0 W/m² | - |
| 1777020388 | 14.44° C | 38% | 1012.8 hPa | 0 mm | - | 0 W/m² | - |
| 1777020085 | 13.89° C | 38% | 1013 hPa | 0 mm | - | 0 W/m² | - |
| 1777019781 | 14.44° C | 37% | 1013 hPa | 0 mm | - | 0 W/m² | - |
| 1777019478 | 14.44° C | 38% | 1013 hPa | 0 mm | - | 0 W/m² | - |
| 1777019174 | 13.89° C | 38% | 1013.1 hPa | 0 mm | - | 0 W/m² | - |
| 1777018871 | 13.89° C | 37% | 1013.2 hPa | 0 mm | - | 0 W/m² | - |
| 1777018568 | 13.89° C | 37% | 1013.3 hPa | 0 mm | - | 0 W/m² | - |
| 1777018265 | 14.44° C | 36% | 1013.2 hPa | 0 mm | - | 0 W/m² | - |
| 1777017962 | 15° C | 36% | 1013.2 hPa | 0 mm | - | 0 W/m² | - |
| 1777017657 | 15° C | 34% | 1013.2 hPa | 0 mm | - | 0 W/m² | - |
| 1777017354 | 15° C | 36% | 1013.4 hPa | 0 mm | - | 0 W/m² | - |
* Rain latest hour (hover to see other rain measurements)
** Current wind speed in m/s (hover to see current wind gust speed)